TimeGMT,TemperatureF,Dew PointF,Humidity,Sea Level PressureIn,VisibilityMPH,Wind Direction,Wind SpeedMPH,Gust SpeedMPH,PrecipitationIn,Events,Conditions,WindDirDegrees,DateUTC
12:00 AM,46,45,96,30.09,,SSW,13.4,,,,,210,2013-12-08 00:00:00
6:00 AM,49,48,96,30.05,,SSW,11.2,,,,,210,2013-12-08 06:00:00
8:00 AM,48.2,48.2,100,30.01,6.2,SSW,13.8,-,N/A,,Mostly Cloudy,210,2013-12-08 08:00:00
8:30 AM,50.0,48.2,94,30.01,3.7,SSW,13.8,-,N/A,,Light Drizzle,210,2013-12-08 08:30:00
9:00 AM,50.0,48.2,94,30.01,3.7,SSW,16.1,-,N/A,Rain,Light Rain,210,2013-12-08 09:00:00
9:30 AM,50.0,48.2,94,30.01,3.7,SSW,17.3,28.8,N/A,Rain,Light Rain,210,2013-12-08 09:30:00
10:00 AM,50.0,50.0,100,30.01,3.1,SSW,17.3,-,N/A,Rain,Light Rain,210,2013-12-08 10:00:00
10:30 AM,50.0,50.0,100,30.01,2.5,SSW,18.4,-,N/A,Rain,Light Rain,210,2013-12-08 10:30:00
11:00 AM,50.0,50.0,100,30.04,1.9,SW,19.6,31.1,N/A,Rain,Light Rain,220,2013-12-08 11:00:00
11:30 AM,50.0,50.0,100,30.01,2.5,SW,18.4,29.9,N/A,Rain,Light Rain,220,2013-12-08 11:30:00
12:00 PM,50,50,99,30.04,2,SW,17.9,,,Rain,Heavy Rain,220,2013-12-08 12:00:00
12:00 PM,50.0,50.0,100,30.01,2.5,SW,17.3,-,N/A,Rain,Rain,220,2013-12-08 12:00:00
12:30 PM,50.0,50.0,100,30.01,3.7,SW,18.4,-,N/A,Rain,Light Rain,220,2013-12-08 12:30:00
1:00 PM,50.0,50.0,100,30.01,6.2,SW,16.1,27.6,N/A,Rain,Light Rain,220,2013-12-08 13:00:00
1:30 PM,50.0,50.0,100,30.01,1.9,SW,18.4,-,N/A,Rain,Light Rain,220,2013-12-08 13:30:00
2:00 PM,50.0,50.0,100,30.01,5.0,SW,16.1,27.6,N/A,,Overcast,220,2013-12-08 14:00:00
2:30 PM,51.8,50.0,94,30.01,5.6,SW,15.0,27.6,N/A,,Overcast,220,2013-12-08 14:30:00
3:00 PM,50.0,50.0,100,30.04,5.0,SW,12.7,-,N/A,,Mostly Cloudy,220,2013-12-08 15:00:00
3:30 PM,50.0,48.2,94,30.04,4.3,SW,10.4,-,N/A,,Mostly Cloudy,220,2013-12-08 15:30:00
4:00 PM,50.0,50.0,100,30.04,5.0,SW,11.5,-,N/A,,Overcast,220,2013-12-08 16:00:00
4:30 PM,50.0,50.0,100,30.04,6.2,SSW,12.7,-,N/A,,Mostly Cloudy,200,2013-12-08 16:30:00
5:00 PM,50.0,48.2,94,30.04,6.2,SSW,13.8,-,N/A,,Mostly Cloudy,210,2013-12-08 17:00:00
5:30 PM,50.0,48.2,94,30.04,6.2,SSW,15.0,-,N/A,,Mostly Cloudy,210,2013-12-08 17:30:00
6:00 PM,50,48,92,30.07,12,SSW,13.4,,,,Partly Cloudy,210,2013-12-08 18:00:00
6:00 PM,50.0,48.2,94,30.04,6.2,SSW,13.8,-,N/A,,Mostly Cloudy,210,2013-12-08 18:00:00
6:30 PM,50.0,48.2,94,30.06,6.2,SSW,12.7,-,N/A,,Mostly Cloudy,210,2013-12-08 18:30:00
7:00 PM,50.0,48.2,94,30.06,6.2,SSW,15.0,-,N/A,,Light Drizzle,210,2013-12-08 19:00:00